Retour au catalogue

STARLINK-34556

ActifCommunicationsVLEO
NORAD 64733·PAYLOAD·🇺🇸 United States

Lancé Jul 2, 2025 depuis Cape Canaveral Space Force Station

Loading…

Prochains Passages (prochaines 24 heures)

TLE

FraisSource: CelesTrak SupGP

Époque: Sep 14, 2026, 20:45 UTC

1 64733C 25144K   26257.86506944  .00022323  00000+0  65991-3 0  2574
2 64733  53.1595  15.7362 0001239  81.1655  96.7309 15.34361751    19

Suivez STARLINK-34556 en temps réel avec AllMySat

Download on the App Store